EHI
4 2 3 3 2 4 7 8 5 3 2 2 1 0 0 0 0 1 1 3 2 1 0 0 0 0 0 0 0 0 0 0 0 0 0 0 0 0 0 0 0 0 0
3 3 3 3 2 3 6 6 4 3 3 2 1 0 0 0 0 1 1 1 1 1 0 1 1 1 1 0 0 0 0 0 0 0 0 0 0 0 0 0 0 0 0
5 5 5 4 4 4 5 6 5 4 3 2 2 1 1 1 1 1 1 1 2 1 1 2 4 4 4 3 2 1 0 0 1 1 0 0 0 0 0 0 0 0 0
8 9 9 8 6 6 8 8 8 7 5 3 3 3 3 3 2 2 2 3 3 3 2 4 6 7 9 8 4 2 1 1 2 2 1 0 0 0 0 0 0 0 0
8 9 11 11 10 11 13 13 14 14 10 5 2 2 3 4 4 3 3 3 4 3 3 5 5 7 9 9 7 4 2 1 2 2 1 0 0 0 0 0 0 0 0
8 8 9 10 10 13 16 17 18 18 12 6 3 1 1 2 4 5 5 4 4 3 2 4 5 5 6 7 5 4 3 2 2 2 1 0 0 0 0 0 0 0 0
9 8 7 7 9 12 15 17 18 15 10 7 6 4 2 2 4 6 6 6 4 3 1 3 4 5 5 5 4 4 4 2 1 1 0 0 0 1 0 0 0 0 0
9 8 8 8 8 9 11 13 13 11 8 9 10 8 3 3 4 4 6 6 4 3 3 4 5 5 6 7 6 4 3 2 1 0 0 0 0 0 0 0 0 0 0
6 7 8 8 6 6 7 9 10 9 7 8 10 9 6 5 4 3 4 4 4 3 4 5 4 4 7 9 8 4 1 1 1 0 0 0 0 0 0 0 0 0 0
4 5 5 5 5 5 6 7 8 8 6 7 8 7 7 6 4 2 2 3 3 4 5 5 4 5 7 8 7 4 1 0 0 0 0 0 0 0 0 0 0 0 0
3 3 3 3 5 6 6 6 6 7 8 8 7 6 6 5 4 4 3 4 4 4 4 5 5 7 7 7 6 3 1 0 0 0 0 0 0 0 0 0 0 0 0
2 3 3 3 4 5 5 4 5 7 9 9 8 6 4 4 4 6 6 5 4 3 3 4 5 6 6 5 4 2 0 0 0 0 0 0 0 0 0 0 0 0 0
1 1 2 2 3 3 3 3 4 5 6 6 5 4 3 3 4 8 9 7 4 3 2 2 3 4 5 4 2 1 0 0 0 0 0 0 0 0 0 0 0 0 0
0 0 1 1 1 1 2 2 2 2 2 2 1 1 2 3 5 9 11 8 5 3 1 1 2 3 5 5 2 1 1 0 0 0 0 0 0 0 0 0 0 0 0
0 0 0 0 0 0 1 1 1 1 0 0 0 0 1 2 5 8 9 8 6 3 1 1 1 2 3 4 2 2 1 0 0 0 0 0 0 0 0 0 0 0 0
0 0 0 0 0 0 0 0 0 0 0 0 0 0 0 1 3 5 5 5 6 4 3 2 2 1 1 1 1 1 1 0 0 0 0 0 0 0 0 0 0 0 0
0 0 0 0 0 0 0 0 0 0 0 0 0 0 0 0 1 1 1 2 4 4 3 3 2 1 0 0 0 0 0 0 0 0 0 0 0 0 0 0 0 0 0
0 0 0 0 0 0 0 0 0 0 0 0 0 0 0 0 0 0 0 1 3 4 4 2 1 0 0 0 0 0 0 0 0 0 0 0 0 0 0 0 0 0 0
0 0 0 0 0 0 0 0 0 0 0 0 0 0 0 0 0 0 0 1 2 3 3 2 1 0 0 0 0 0 0 0 0 0 0 0 0 0 0 0 0 0 0
0 0 0 0 0 0 0 0 0 0 0 0 0 0 0 0 0 0 0 0 1 2 3 2 1 0 0 0 0 0 0 0 0 0 0 0 0 0 0 0 0 0 0
0 0 0 0 0 0 0 0 0 0 0 0 0 0 0 0 0 0 0 0 1 1 1 1 0 0 0 0 0 0 0 0 0 0 0 0 0 0 0 0 0 0 0
0 0 0 0 0 0 0 0 0 0 0 0 0 0 0 0 0 0 0 0 0 0 0 0 0 0 0 0 0 0 0 0 0 0 0 0 0 0 0 0 0 0 0
0 0 0 0 0 0 0 0 0 0 0 0 0 0 0 0 0 0 0 0 0 0 0 0 0 0 0 0 0 0 0 0 0 0 0 0 0 0 0 0 0 0 0
0 0 0 0 0 0 0 0 0 0 0 0 0 0 0 0 0 0 0 0 0 0 0 0 0 0 0 0 0 0 0 0 0 0 0 0 0 0 0 0 0 0 0
0 0 0 0 0 0 0 0 0 0 0 0 0 0 0 0 0 0 0 0 0 0 0 0 0 0 0 0 0 0 0 0 0 0 0 0 0 0 0 0 0 0 0
0 0 0 0 0 0 0 0 0 0 0 0 0 0 0 0 0 0 0 0 0 0 0 0 0 0 0 0 0 0 0 0 0 0 0 0 0 0 0 0 0 0 0
Wind_Speed
4 3 3 2 4 3 4 4 4 4 5 6 6 6 6 6 6 5 3 8 8 9 11 12 13 13 13 12 12 11 9 9 8 8 8 7 7 6 6 6 6 6 5
3 3 3 3 3 3 3 3 4 3 4 4 5 5 6 6 5 5 5 6 9 9 9 10 12 12 13 13 12 11 10 9 9 8 8 7 7 7 7 6 6 6 6
2 3 3 3 3 3 3 4 4 4 5 5 5 5 5 5 4 5 6 5 5 9 9 9 10 11 12 12 11 11 10 10 9 9 9 8 8 7 6 7 6 7 7
1 2 2 2 2 3 3 3 4 4 4 4 4 4 4 4 5 5 5 4 4 4 7 8 9 10 11 12 11 11 11 11 10 10 9 9 8 8 7 8 8 8 8
0 1 1 1 3 3 3 4 3 4 4 4 4 4 4 4 4 5 5 5 4 4 4 5 8 10 11 11 11 11 11 11 11 9 9 9 9 9 9 9 9 9 9
0 1 1 1 3 2 2 2 4 4 4 3 4 4 4 4 4 4 5 4 3 4 4 4 4 6 9 9 10 11 11 11 11 10 10 9 9 9 9 9 9 9 9
1 1 1 1 2 1 2 3 4 5 4 3 4 4 4 5 4 4 4 3 4 4 3 3 3 3 4 7 8 9 10 11 10 10 11 10 9 10 10 10 10 9 10
3 1 1 1 1 1 2 3 3 4 4 4 4 4 4 4 5 4 3 3 3 3 3 3 2 2 3 3 5 8 9 10 11 10 10 11 11 11 11 10 10 9 10
4 3 2 2 2 2 1 2 3 4 4 4 4 4 4 3 1 3 3 2 2 2 2 2 2 2 2 3 3 6 8 9 10 10 10 11 11 11 11 11 10 10 10
5 4 3 2 3 2 2 3 2 4 5 5 4 4 5 3 3 2 2 2 2 1 1 1 1 2 2 2 3 5 7 8 9 9 10 11 11 11 11 11 11 11 11
5 5 4 4 3 3 3 3 3 4 4 5 4 4 4 4 6 5 4 2 1 0 0 1 1 1 1 1 2 5 7 7 8 10 10 10 10 11 12 12 12 12 12
4 6 5 4 3 3 3 3 3 4 4 4 4 4 4 4 4 5 5 4 2 1 0 1 1 1 0 1 2 6 8 8 9 9 10 10 10 11 11 11 11 12 11
4 6 6 5 4 4 4 4 3 3 3 4 4 4 4 5 5 4 4 4 3 1 0 1 1 1 1 1 3 8 9 10 9 9 9 10 11 11 11 10 10 10 10
5 6 5 4 4 4 4 3 3 3 2 3 4 4 4 5 5 5 5 4 3 2 2 1 0 1 1 2 6 8 8 11 10 9 9 10 10 10 10 9 9 9 8
4 5 5 5 4 4 4 4 3 3 3 3 4 4 4 4 4 5 5 5 5 4 3 2 1 1 2 3 6 6 7 11 11 11 11 10 10 9 9 9 9 8 7
5 5 5 5 5 5 5 4 3 3 3 3 2 3 3 3 3 4 4 5 5 4 2 1 1 3 4 4 7 6 7 12 12 12 11 10 9 9 9 9 9 8 8
5 5 5 5 6 6 6 5 5 5 4 4 3 3 3 3 3 3 3 3 3 3 3 2 2 4 5 6 6 6 6 6 8 12 11 10 10 9 9 8 7 7 7
5 5 5 6 6 6 6 6 6 6 5 5 5 4 3 2 2 1 1 2 2 3 5 7 5 5 6 6 7 7 7 7 7 11 11 10 9 7 6 6 6 6 6
6 6 6 6 6 6 6 6 6 6 6 5 5 4 4 3 2 1 1 2 3 5 6 7 6 5 5 6 7 7 8 5 7 9 9 9 8 7 6 6 6 5 5
6 6 6 6 6 6 7 6 6 6 6 6 6 6 5 4 2 1 2 3 5 7 8 8 7 7 6 6 6 7 6 5 5 6 6 6 7 7 7 7 6 6 6
6 6 6 7 7 7 8 8 6 6 6 6 7 7 7 7 7 4 2 4 6 6 7 8 8 8 7 7 6 5 7 6 5 4 5 5 5 5 7 8 9 9 8
6 7 7 8 9 8 10 11 8 6 6 7 6 6 6 6 7 7 7 5 4 6 8 7 7 8 9 8 6 6 7 6 5 4 4 4 4 4 4 5 8 10 10
6 6 7 8 8 9 10 10 10 6 7 7 6 6 6 6 6 7 8 8 8 6 3 5 8 8 9 8 8 7 5 5 4 5 3 3 3 3 4 5 10 9 9
5 6 7 7 7 9 10 10 10 6 7 7 7 7 7 7 7 6 8 9 8 7 5 4 6 6 6 6 5 5 6 6 5 3 3 2 3 3 3 4 10 10 10
5 5 6 7 7 8 11 11 10 5 6 8 8 9 8 8 7 5 7 9 10 8 10 11 10 9 8 6 3 4 5 5 5 5 3 2 2 2 3 4 7 12 12
4 5 6 7 7 8 10 12 11 4 6 6 7 8 12 9 8 7 6 8 9 8 9 9 9 8 7 6 2 1 2 3 4 4 3 2 2 2 2 3 3 6 9
Wind_Direction
210 207 217 232 243 234 215 226 240 232 238 233 239 239 248 249 252 250 194 168 199 217 220 216 213 213 215 216 216 212 207 207 205 203 203 205 203 203 199 197 191 185 178
217 222 225 232 246 251 256 247 242 239 244 249 247 247 253 252 244 249 254 188 191 208 217 221 218 214 217 217 212 206 205 206 207 204 199 195 193 194 193 191 182 170 164
223 230 233 230 235 243 246 247 242 242 239 238 243 245 245 254 255 253 257 254 214 200 211 219 215 212 212 213 209 207 207 207 208 204 198 191 189 191 186 177 165 156 151
256 251 248 248 255 252 247 245 247 245 246 250 249 252 250 242 244 248 253 248 257 242 205 204 210 205 206 207 208 205 206 205 206 203 194 189 185 181 172 162 155 147 142
262 263 275 284 260 255 253 256 241 254 251 250 252 247 253 251 248 246 250 252 250 257 256 190 199 201 199 201 205 207 210 206 201 197 190 183 178 172 165 160 154 146 141
95 275 218 272 270 260 257 259 258 250 253 247 257 261 257 255 253 251 249 246 242 242 243 241 212 196 193 197 200 204 209 207 196 186 186 180 170 165 158 156 152 148 145
32 314 270 220 258 250 267 266 258 247 241 236 247 248 242 238 240 242 239 241 233 234 235 229 232 226 196 190 194 198 202 197 189 185 185 176 168 164 158 154 151 151 148
19 19 352 291 288 269 258 269 267 263 249 233 253 260 247 224 210 218 220 223 238 231 229 231 236 230 232 207 180 193 197 190 188 186 183 174 169 165 161 157 154 153 149
32 21 13 338 308 280 274 278 274 264 259 242 239 256 265 262 266 191 206 223 239 238 242 242 234 228 221 216 190 183 179 176 179 182 179 172 166 164 162 160 158 155 151
36 29 16 358 326 311 302 281 266 265 260 255 241 239 258 279 268 255 206 200 206 226 251 265 251 231 222 214 186 168 169 172 173 171 165 165 165 164 162 159 157 155 150
39 28 18 5 348 328 321 302 288 271 263 262 258 254 257 250 245 251 253 224 193 222 282 286 289 257 224 206 190 165 156 157 157 155 155 158 157 156 155 153 150 146 143
39 29 17 7 352 344 331 313 295 282 279 274 268 257 250 253 250 249 249 240 233 234 22 0 337 312 260 144 135 130 138 138 137 141 145 146 147 144 144 144 140 139 140
29 23 12 3 359 352 338 327 305 301 289 274 264 263 257 254 261 257 250 242 238 230 262 347 349 28 52 85 101 113 121 124 124 126 130 131 134 136 136 136 136 138 139
25 15 9 4 1 355 351 340 316 309 304 282 273 271 266 260 258 247 238 225 221 209 195 191 344 107 98 97 94 102 105 107 108 109 112 114 120 125 129 132 132 134 138
24 19 11 12 15 14 7 347 353 329 309 290 279 271 269 268 259 252 238 227 221 213 204 182 148 95 100 94 102 108 110 106 106 107 109 112 118 125 130 133 131 131 131
28 18 17 23 24 20 12 360 356 350 320 315 306 297 289 276 268 255 240 235 229 218 186 141 120 107 104 102 100 106 109 114 113 114 113 111 112 115 121 122 123 126 127
27 28 27 28 26 22 17 13 9 358 352 347 328 309 299 292 277 265 245 223 206 182 157 131 110 110 111 110 106 104 105 108 111 114 115 114 112 114 120 125 127 129 131
27 30 29 32 29 26 20 18 16 14 9 1 352 341 326 317 309 293 249 187 173 162 149 139 130 120 113 116 114 110 106 107 111 117 119 121 122 127 133 139 137 137 136
34 34 35 35 33 27 25 22 21 23 21 15 9 8 3 7 9 37 107 140 141 134 135 134 132 125 122 127 122 113 109 113 120 127 130 136 141 145 151 152 150 152 155
39 37 39 38 34 29 25 24 25 29 30 30 28 25 22 22 24 70 103 124 128 128 131 134 134 131 127 135 136 132 127 128 128 137 134 139 146 158 167 173 175 179 187
43 42 43 43 39 35 21 12 21 34 36 42 42 40 39 40 33 35 86 126 137 137 138 139 139 139 140 148 145 143 132 133 135 148 150 157 165 179 179 188 196 199 207
42 44 45 46 43 36 12 5 2 33 36 44 48 51 61 60 65 62 63 75 110 140 144 146 144 144 147 145 145 148 148 148 143 156 168 160 174 183 191 193 172 187 208
48 46 48 49 48 36 15 9 2 27 46 44 45 47 60 64 75 92 94 94 85 87 126 143 140 147 148 148 152 154 151 141 123 144 174 162 177 193 206 169 164 193 214
49 51 51 51 49 37 15 4 348 44 56 51 49 52 60 60 58 75 97 94 91 82 89 115 122 128 128 135 145 135 131 130 135 152 187 189 181 198 205 182 173 201 219
54 53 56 54 50 42 19 3 349 63 66 60 55 49 53 69 39 32 97 101 98 94 79 79 84 94 95 98 98 142 151 159 149 152 182 215 189 208 213 208 183 198 217
65 65 60 54 50 44 26 10 351 58 70 73 73 71 54 48 37 30 89 101 101 102 108 109 104 113 122 121 131 179 174 161 150 149 148 229 216 229 225 207 211 203 217